Year,Month,Day,Hour,Minute,Value (Times are PST for temperature in C)
2018,09,19,00,00,8.70
2018,09,19,00,01,8.70
2018,09,19,00,02,8.70
2018,09,19,00,03,8.70
2018,09,19,00,04,8.70
2018,09,19,00,05,8.70
2018,09,19,00,06,8.60
2018,09,19,00,07,8.60
2018,09,19,00,08,8.60
2018,09,19,00,09,8.60
2018,09,19,00,10,8.60
2018,09,19,00,11,8.70
2018,09,19,00,12,8.70
2018,09,19,00,13,8.70
2018,09,19,00,14,8.70
2018,09,19,00,15,8.70
2018,09,19,00,16,8.70
2018,09,19,00,17,8.70
2018,09,19,00,18,8.70
2018,09,19,00,19,8.70
2018,09,19,00,20,8.70
2018,09,19,00,21,8.70
2018,09,19,00,22,8.70
2018,09,19,00,23,8.70
2018,09,19,00,24,8.70
2018,09,19,00,25,8.70
2018,09,19,00,26,8.70
2018,09,19,00,27,8.70
2018,09,19,00,28,8.60
2018,09,19,00,29,8.60
2018,09,19,00,30,8.60
2018,09,19,00,31,8.50
2018,09,19,00,32,8.50
2018,09,19,00,33,8.50
2018,09,19,00,34,8.50
2018,09,19,00,35,8.50
2018,09,19,00,36,8.50
2018,09,19,00,37,8.40
2018,09,19,00,38,8.40
2018,09,19,00,39,8.40
2018,09,19,00,40,8.30
2018,09,19,00,41,8.30
2018,09,19,00,42,8.30
2018,09,19,00,43,8.20
2018,09,19,00,44,8.20
2018,09,19,00,45,8.20
2018,09,19,00,46,8.20
2018,09,19,00,47,8.20
2018,09,19,00,48,8.20
2018,09,19,00,49,8.20
2018,09,19,00,50,8.20
2018,09,19,00,51,8.10
2018,09,19,00,52,8.10
2018,09,19,00,53,8.10
2018,09,19,00,54,8.10
2018,09,19,00,55,8.10
2018,09,19,00,56,8.10
2018,09,19,00,57,8.10
2018,09,19,00,58,8.10
2018,09,19,00,59,8.10
2018,09,19,01,00,8.10
2018,09,19,01,01,8.10
2018,09,19,01,02,8.10
2018,09,19,01,03,8.10
2018,09,19,01,04,8.10
2018,09,19,01,05,8.10
2018,09,19,01,06,8.10
2018,09,19,01,07,8.10
2018,09,19,01,08,8.10
2018,09,19,01,09,8.10
2018,09,19,01,10,8.10
2018,09,19,01,11,8.10
2018,09,19,01,12,8.10
2018,09,19,01,13,8.10
2018,09,19,01,14,8.10
2018,09,19,01,15,8.10
2018,09,19,01,16,8.10
2018,09,19,01,17,8.10
2018,09,19,01,18,8.10
2018,09,19,01,19,8.10
2018,09,19,01,20,8.10
2018,09,19,01,21,8.00
2018,09,19,01,22,8.00
2018,09,19,01,23,8.00
2018,09,19,01,24,8.00
2018,09,19,01,25,8.00
2018,09,19,01,26,8.00
2018,09,19,01,27,7.90
2018,09,19,01,28,7.90
2018,09,19,01,29,7.90
2018,09,19,01,30,7.90
2018,09,19,01,31,7.90
2018,09,19,01,32,7.90
2018,09,19,01,33,7.90
2018,09,19,01,34,7.90
2018,09,19,01,35,7.80
2018,09,19,01,36,7.80
2018,09,19,01,37,7.80
2018,09,19,01,38,7.80
2018,09,19,01,39,7.80
2018,09,19,01,40,7.80
2018,09,19,01,41,7.80
2018,09,19,01,42,7.80
2018,09,19,01,43,7.80
2018,09,19,01,44,7.80
2018,09,19,01,45,7.90
2018,09,19,01,46,7.90
2018,09,19,01,47,7.90
2018,09,19,01,48,7.90
2018,09,19,01,49,7.90
2018,09,19,01,50,7.90
2018,09,19,01,51,7.90
2018,09,19,01,52,7.80
2018,09,19,01,53,7.80
2018,09,19,01,54,7.80
2018,09,19,01,55,7.80
2018,09,19,01,56,7.80
2018,09,19,01,57,7.80
2018,09,19,01,58,7.80
2018,09,19,01,59,7.80
2018,09,19,02,00,7.70
2018,09,19,02,01,7.70
2018,09,19,02,02,7.70
2018,09,19,02,03,7.70
2018,09,19,02,04,7.70
2018,09,19,02,05,7.60
2018,09,19,02,06,7.60
2018,09,19,02,07,7.60
2018,09,19,02,08,7.60
2018,09,19,02,09,7.60
2018,09,19,02,10,7.60
2018,09,19,02,11,7.60
2018,09,19,02,12,7.60
2018,09,19,02,13,7.60
2018,09,19,02,14,7.60
2018,09,19,02,15,7.60
2018,09,19,02,16,7.60
2018,09,19,02,17,7.60
2018,09,19,02,18,7.60
2018,09,19,02,19,7.60
2018,09,19,02,20,7.60
2018,09,19,02,21,7.60
2018,09,19,02,22,7.50
2018,09,19,02,23,7.50
2018,09,19,02,24,7.50
2018,09,19,02,25,7.50
2018,09,19,02,26,7.50
2018,09,19,02,27,7.50
2018,09,19,02,28,7.50
2018,09,19,02,29,7.50
2018,09,19,02,30,7.50
2018,09,19,02,31,7.50
2018,09,19,02,32,7.50
2018,09,19,02,33,7.50
2018,09,19,02,34,7.50
2018,09,19,02,35,7.50
2018,09,19,02,36,7.50
2018,09,19,02,37,7.50
2018,09,19,02,38,7.40
2018,09,19,02,39,7.40
2018,09,19,02,40,7.40
2018,09,19,02,41,7.40
2018,09,19,02,42,7.40
2018,09,19,02,43,7.40
2018,09,19,02,44,7.30
2018,09,19,02,45,7.30
2018,09,19,02,46,7.30
2018,09,19,02,47,7.30
2018,09,19,02,48,7.30
2018,09,19,02,49,7.30
2018,09,19,02,50,7.40
2018,09,19,02,51,7.40
2018,09,19,02,52,7.40
2018,09,19,02,53,7.40
2018,09,19,02,54,7.40
2018,09,19,02,55,7.40
2018,09,19,02,56,7.30
2018,09,19,02,57,7.30
2018,09,19,02,58,7.30
2018,09,19,02,59,7.30
2018,09,19,03,00,7.30
2018,09,19,03,01,7.30
2018,09,19,03,02,7.30
2018,09,19,03,03,7.30
2018,09,19,03,04,7.30
2018,09,19,03,05,7.30
2018,09,19,03,06,7.30
2018,09,19,03,07,7.30
2018,09,19,03,08,7.30
2018,09,19,03,09,7.30
2018,09,19,03,10,7.30
2018,09,19,03,11,7.30
2018,09,19,03,12,7.30
2018,09,19,03,13,7.30
2018,09,19,03,14,7.30
2018,09,19,03,15,7.30
2018,09,19,03,16,7.30
2018,09,19,03,17,7.30
2018,09,19,03,18,7.30
2018,09,19,03,19,7.30
2018,09,19,03,20,7.30
2018,09,19,03,21,7.30
2018,09,19,03,22,7.30
2018,09,19,03,23,7.30
2018,09,19,03,24,7.30
2018,09,19,03,25,7.30
2018,09,19,03,26,7.30
2018,09,19,03,27,7.30
2018,09,19,03,28,7.30
2018,09,19,03,29,7.30
2018,09,19,03,30,7.30
2018,09,19,03,31,7.30
2018,09,19,03,32,7.30
2018,09,19,03,33,7.30
2018,09,19,03,34,7.30
2018,09,19,03,35,7.30
2018,09,19,03,36,7.30
2018,09,19,03,37,7.30
2018,09,19,03,38,7.30
2018,09,19,03,39,7.30
2018,09,19,03,40,7.30
2018,09,19,03,41,7.30
2018,09,19,03,42,7.30
2018,09,19,03,43,7.30
2018,09,19,03,44,7.30
2018,09,19,03,45,7.30
2018,09,19,03,46,7.30
2018,09,19,03,47,7.40
2018,09,19,03,48,7.40
2018,09,19,03,49,7.40
2018,09,19,03,50,7.40
2018,09,19,03,51,7.30
2018,09,19,03,52,7.30
2018,09,19,03,53,7.30
2018,09,19,03,54,7.30
2018,09,19,03,55,7.30
2018,09,19,03,56,7.30
2018,09,19,03,57,7.30
2018,09,19,03,58,7.30
2018,09,19,03,59,7.20
2018,09,19,04,00,7.20
2018,09,19,04,01,7.20
2018,09,19,04,02,7.20
2018,09,19,04,03,7.20
2018,09,19,04,04,7.20
2018,09,19,04,05,7.10
2018,09,19,04,06,7.10
2018,09,19,04,07,7.10
2018,09,19,04,08,7.10
2018,09,19,04,09,7.10
2018,09,19,04,10,7.10
2018,09,19,04,11,7.10
2018,09,19,04,12,7.10
2018,09,19,04,13,7.10
2018,09,19,04,14,7.10
2018,09,19,04,15,7.10
2018,09,19,04,16,7.10
2018,09,19,04,17,7.10
2018,09,19,04,18,7.10
2018,09,19,04,19,7.00
2018,09,19,04,20,7.00
2018,09,19,04,21,7.00
2018,09,19,04,22,7.00
2018,09,19,04,23,7.00
2018,09,19,04,24,7.00
2018,09,19,04,25,7.00
2018,09,19,04,26,7.00
2018,09,19,04,27,7.00
2018,09,19,04,28,7.00
2018,09,19,04,29,7.00
2018,09,19,04,30,7.00
2018,09,19,04,31,7.00
2018,09,19,04,32,7.00
2018,09,19,04,33,7.00
2018,09,19,04,34,6.90
2018,09,19,04,35,6.90
2018,09,19,04,36,6.90
2018,09,19,04,37,6.90
2018,09,19,04,38,6.90
2018,09,19,04,39,6.90
2018,09,19,04,40,6.80
2018,09,19,04,41,6.80
2018,09,19,04,42,6.80
2018,09,19,04,43,6.80
2018,09,19,04,44,6.80
2018,09,19,04,45,6.80
2018,09,19,04,46,6.80
2018,09,19,04,47,6.80
2018,09,19,04,48,6.80
2018,09,19,04,49,6.80
2018,09,19,04,50,6.80
2018,09,19,04,51,6.80
2018,09,19,04,52,6.80
2018,09,19,04,53,6.80
2018,09,19,04,54,6.80
2018,09,19,04,55,6.80
2018,09,19,04,56,6.80
2018,09,19,04,57,6.80
2018,09,19,04,58,6.80
2018,09,19,04,59,6.80
2018,09,19,05,00,6.80
2018,09,19,05,01,6.80
2018,09,19,05,02,6.70
2018,09,19,05,03,6.70
2018,09,19,05,04,6.70
2018,09,19,05,05,6.70
2018,09,19,05,06,6.60
2018,09,19,05,07,6.60
2018,09,19,05,08,6.60
2018,09,19,05,09,6.60
2018,09,19,05,10,6.60
2018,09,19,05,11,6.60
2018,09,19,05,12,6.60
2018,09,19,05,13,6.60
2018,09,19,05,14,6.60
2018,09,19,05,15,6.60
2018,09,19,05,16,6.60
2018,09,19,05,17,6.60
2018,09,19,05,18,6.60
2018,09,19,05,19,6.60
2018,09,19,05,20,6.60
2018,09,19,05,21,6.60
2018,09,19,05,22,6.60
2018,09,19,05,23,6.60
2018,09,19,05,24,6.60
2018,09,19,05,25,6.60
2018,09,19,05,26,6.60
2018,09,19,05,27,6.60
2018,09,19,05,28,6.60
2018,09,19,05,29,6.60
2018,09,19,05,30,6.60
2018,09,19,05,31,6.60
2018,09,19,05,32,6.60
2018,09,19,05,33,6.60
2018,09,19,05,34,6.60
2018,09,19,05,35,6.50
2018,09,19,05,36,6.40
2018,09,19,05,37,6.40
2018,09,19,05,38,6.40
2018,09,19,05,39,6.40
2018,09,19,05,40,6.40
2018,09,19,05,41,6.40
2018,09,19,05,42,6.40
2018,09,19,05,43,6.40
2018,09,19,05,44,6.40
2018,09,19,05,45,6.40
2018,09,19,05,46,6.40
2018,09,19,05,47,6.40
2018,09,19,05,48,6.30
2018,09,19,05,49,6.30
2018,09,19,05,50,6.30
2018,09,19,05,51,6.30
2018,09,19,05,52,6.30
2018,09,19,05,53,6.30
2018,09,19,05,54,6.20
2018,09,19,05,55,6.20
2018,09,19,05,56,6.20
2018,09,19,05,57,6.20
2018,09,19,05,58,6.20
2018,09,19,05,59,6.20
2018,09,19,06,00,6.20
2018,09,19,06,01,6.10
2018,09,19,06,02,6.10
2018,09,19,06,03,6.10
2018,09,19,06,04,6.10
2018,09,19,06,05,6.10
2018,09,19,06,06,6.10
2018,09,19,06,07,6.20
2018,09,19,06,08,6.20
2018,09,19,06,09,6.20
2018,09,19,06,10,6.20
2018,09,19,06,11,6.20
2018,09,19,06,12,6.20
2018,09,19,06,13,6.20
2018,09,19,06,14,6.20
2018,09,19,06,15,6.20
2018,09,19,06,16,6.20
2018,09,19,06,17,6.20
2018,09,19,06,18,6.10
2018,09,19,06,19,6.10
2018,09,19,06,20,6.00
2018,09,19,06,21,6.00
2018,09,19,06,22,6.00
2018,09,19,06,23,6.00
2018,09,19,06,24,6.00
2018,09,19,06,25,6.00
2018,09,19,06,26,6.00
2018,09,19,06,27,6.00
2018,09,19,06,28,5.90
2018,09,19,06,29,5.90
2018,09,19,06,30,5.90
2018,09,19,06,31,5.90
2018,09,19,06,32,5.90
2018,09,19,06,33,5.90
2018,09,19,06,34,5.90
2018,09,19,06,35,5.80
2018,09,19,06,36,5.80
2018,09,19,06,37,5.80
2018,09,19,06,38,5.80
2018,09,19,06,39,5.80
2018,09,19,06,40,5.80
2018,09,19,06,41,5.70
2018,09,19,06,42,5.70
2018,09,19,06,43,5.70
2018,09,19,06,44,5.70
2018,09,19,06,45,5.70
2018,09,19,06,46,5.70
2018,09,19,06,47,5.70
2018,09,19,06,48,5.70
2018,09,19,06,49,5.70
2018,09,19,06,50,5.70
2018,09,19,06,51,5.70
2018,09,19,06,52,5.70
2018,09,19,06,53,5.70
2018,09,19,06,54,5.70
2018,09,19,06,55,5.70
2018,09,19,06,56,5.70
2018,09,19,06,57,5.70
2018,09,19,06,58,5.70
2018,09,19,06,59,5.70
2018,09,19,07,00,5.70
2018,09,19,07,01,5.70
2018,09,19,07,02,5.70
2018,09,19,07,03,5.70
2018,09,19,07,04,5.70
2018,09,19,07,05,5.70
2018,09,19,07,06,5.70
2018,09,19,07,07,5.70
2018,09,19,07,08,5.70
2018,09,19,07,09,5.70
2018,09,19,07,10,5.70
2018,09,19,07,11,5.70
2018,09,19,07,12,5.70
2018,09,19,07,13,5.70
2018,09,19,07,14,5.70
2018,09,19,07,15,5.70
2018,09,19,07,16,5.70
2018,09,19,07,17,5.70
2018,09,19,07,18,5.70
2018,09,19,07,19,5.70
2018,09,19,07,20,5.70
2018,09,19,07,21,5.70
2018,09,19,07,22,5.70
2018,09,19,07,23,5.70
2018,09,19,07,24,5.70
2018,09,19,07,25,5.70
2018,09,19,07,26,5.70
2018,09,19,07,27,5.70
2018,09,19,07,28,5.60
2018,09,19,07,29,5.60
2018,09,19,07,30,5.60
2018,09,19,07,31,5.70
2018,09,19,07,32,5.70
2018,09,19,07,33,5.70
2018,09,19,07,34,5.70
2018,09,19,07,35,5.70
2018,09,19,07,36,5.70
2018,09,19,07,37,5.70
2018,09,19,07,38,5.70
2018,09,19,07,39,5.70
2018,09,19,07,40,5.80
2018,09,19,07,41,5.80
2018,09,19,07,42,5.80
2018,09,19,07,43,5.80
2018,09,19,07,44,5.90
2018,09,19,07,45,5.90
2018,09,19,07,46,6.00
2018,09,19,07,47,6.00
2018,09,19,07,48,6.10
2018,09,19,07,49,6.10
2018,09,19,07,50,6.20
2018,09,19,07,51,6.20
2018,09,19,07,52,6.20
2018,09,19,07,53,6.20
2018,09,19,07,54,6.30
2018,09,19,07,55,6.40
2018,09,19,07,56,6.40
2018,09,19,07,57,6.60
2018,09,19,07,58,6.60
2018,09,19,07,59,6.70
2018,09,19,08,00,6.70
2018,09,19,08,01,6.80
2018,09,19,08,02,6.80
2018,09,19,08,03,6.80
2018,09,19,08,04,6.80
2018,09,19,08,05,6.90
2018,09,19,08,06,7.00
2018,09,19,08,07,7.00
2018,09,19,08,08,7.10
2018,09,19,08,09,7.10
2018,09,19,08,10,7.30
2018,09,19,08,11,7.40
2018,09,19,08,12,7.50
2018,09,19,08,13,7.60
2018,09,19,08,14,7.70
2018,09,19,08,15,7.80
2018,09,19,08,16,7.90
2018,09,19,08,17,8.00
2018,09,19,08,18,8.00
2018,09,19,08,19,8.00
2018,09,19,08,20,8.10
2018,09,19,08,21,8.10
2018,09,19,08,22,8.20
2018,09,19,08,23,8.20
2018,09,19,08,24,8.40
2018,09,19,08,25,8.50
2018,09,19,08,26,8.60
2018,09,19,08,27,8.80
2018,09,19,08,28,8.90
2018,09,19,08,29,9.00
2018,09,19,08,30,9.20
2018,09,19,08,31,9.30
2018,09,19,08,32,9.40
2018,09,19,08,33,9.50
2018,09,19,08,34,9.70
2018,09,19,08,35,9.70
2018,09,19,08,36,9.80
2018,09,19,08,37,9.90
2018,09,19,08,38,10.00
2018,09,19,08,39,10.10
2018,09,19,08,40,10.20
2018,09,19,08,41,10.30
2018,09,19,08,42,10.40
2018,09,19,08,43,10.50
2018,09,19,08,44,10.60
2018,09,19,08,45,10.70
2018,09,19,08,46,10.70
2018,09,19,08,47,10.80
2018,09,19,08,48,10.80
2018,09,19,08,49,10.80
2018,09,19,08,50,10.90
2018,09,19,08,51,10.90
2018,09,19,08,52,10.90
2018,09,19,08,53,11.00
2018,09,19,08,54,11.10
2018,09,19,08,55,11.20
2018,09,19,08,56,11.20
2018,09,19,08,57,11.20
2018,09,19,08,58,11.30
2018,09,19,08,59,11.30
2018,09,19,09,00,11.30
2018,09,19,09,01,11.40
2018,09,19,09,02,11.60
2018,09,19,09,03,11.70
2018,09,19,09,04,11.80
2018,09,19,09,05,11.80
2018,09,19,09,06,11.90
2018,09,19,09,07,12.00
2018,09,19,09,08,12.10
2018,09,19,09,09,12.20
2018,09,19,09,10,12.30
2018,09,19,09,11,12.30
2018,09,19,09,12,12.30
2018,09,19,09,13,12.30
2018,09,19,09,14,12.30
2018,09,19,09,15,12.40
2018,09,19,09,16,12.50
2018,09,19,09,17,12.50
2018,09,19,09,18,12.60
2018,09,19,09,19,12.60
2018,09,19,09,20,12.60
2018,09,19,09,21,12.60
2018,09,19,09,22,12.60
2018,09,19,09,23,12.70
2018,09,19,09,24,12.70
2018,09,19,09,25,12.70
2018,09,19,09,26,12.70
2018,09,19,09,27,12.60
2018,09,19,09,28,12.60
2018,09,19,09,29,12.70
2018,09,19,09,30,12.80
2018,09,19,09,31,12.90
2018,09,19,09,32,13.00
2018,09,19,09,33,13.10
2018,09,19,09,34,13.20
2018,09,19,09,35,13.30
2018,09,19,09,36,13.30
2018,09,19,09,37,13.40
2018,09,19,09,38,13.40
2018,09,19,09,39,13.40
2018,09,19,09,40,13.50
2018,09,19,09,41,13.50
2018,09,19,09,42,13.50
2018,09,19,09,43,13.50
2018,09,19,09,44,13.40
2018,09,19,09,45,13.50
2018,09,19,09,46,13.50
2018,09,19,09,47,13.50
2018,09,19,09,48,13.50
2018,09,19,09,49,13.60
2018,09,19,09,50,13.50
2018,09,19,09,51,13.50
2018,09,19,09,52,13.40
2018,09,19,09,53,13.40
2018,09,19,09,54,13.40
2018,09,19,09,55,13.40
2018,09,19,09,56,13.40
2018,09,19,09,57,13.40
2018,09,19,09,58,13.50
2018,09,19,09,59,13.60
2018,09,19,10,00,13.70
2018,09,19,10,01,13.80
2018,09,19,10,02,13.80
2018,09,19,10,03,13.70
2018,09,19,10,04,13.80
2018,09,19,10,05,13.80
2018,09,19,10,06,13.80
2018,09,19,10,07,13.90
2018,09,19,10,08,13.90
2018,09,19,10,09,13.90
2018,09,19,10,10,13.90
2018,09,19,10,11,13.90
2018,09,19,10,12,13.80
2018,09,19,10,13,13.70
2018,09,19,10,14,13.60
2018,09,19,10,15,13.60
2018,09,19,10,16,13.60
2018,09,19,10,17,13.40
2018,09,19,10,18,13.50
2018,09,19,10,19,13.60
2018,09,19,10,20,13.60
2018,09,19,10,21,13.60
2018,09,19,10,22,13.60
2018,09,19,10,23,13.60
2018,09,19,10,24,13.40
2018,09,19,10,25,13.40
2018,09,19,10,26,13.40
2018,09,19,10,27,13.50
2018,09,19,10,28,13.50
2018,09,19,10,29,13.70
2018,09,19,10,30,13.60
2018,09,19,10,31,13.60
2018,09,19,10,32,13.60
2018,09,19,10,33,13.60
2018,09,19,10,34,13.60
2018,09,19,10,35,13.50
2018,09,19,10,36,13.50
2018,09,19,10,37,13.50
2018,09,19,10,38,13.60
2018,09,19,10,39,13.50
2018,09,19,10,40,13.60
2018,09,19,10,41,13.70
2018,09,19,10,42,13.70
2018,09,19,10,43,13.70
2018,09,19,10,44,13.80
2018,09,19,10,45,13.80
2018,09,19,10,46,13.90
2018,09,19,10,47,13.90
2018,09,19,10,48,14.00
2018,09,19,10,49,13.90
2018,09,19,10,50,13.80
2018,09,19,10,51,13.80
2018,09,19,10,52,13.70
2018,09,19,10,53,13.80
2018,09,19,10,54,13.80
2018,09,19,10,55,13.90
2018,09,19,10,56,13.90
2018,09,19,10,57,13.80
2018,09,19,10,58,13.90
2018,09,19,10,59,14.00
2018,09,19,11,00,14.10
2018,09,19,11,01,14.10
2018,09,19,11,02,14.10
2018,09,19,11,03,14.00
2018,09,19,11,04,14.00
2018,09,19,11,05,14.00
2018,09,19,11,06,14.10
2018,09,19,11,07,14.20
2018,09,19,11,08,14.20
2018,09,19,11,09,14.20
2018,09,19,11,10,14.20
2018,09,19,11,11,14.30
2018,09,19,11,12,14.40
2018,09,19,11,13,14.50
2018,09,19,11,14,14.50
2018,09,19,11,15,14.50
2018,09,19,11,16,14.50
2018,09,19,11,17,14.60
2018,09,19,11,18,14.80
2018,09,19,11,19,14.80
2018,09,19,11,20,14.90
2018,09,19,11,21,14.80
2018,09,19,11,22,14.80
2018,09,19,11,23,14.80
2018,09,19,11,24,14.90
2018,09,19,11,25,15.00
2018,09,19,11,26,15.10
2018,09,19,11,27,15.00
2018,09,19,11,28,15.00
2018,09,19,11,29,15.10
2018,09,19,11,30,15.30
2018,09,19,11,31,15.40
2018,09,19,11,32,15.50
2018,09,19,11,33,15.40
2018,09,19,11,34,15.30
2018,09,19,11,35,15.30
2018,09,19,11,36,15.30
2018,09,19,11,37,15.30
2018,09,19,11,38,15.30
2018,09,19,11,39,15.30
2018,09,19,11,40,15.10
2018,09,19,11,41,15.10
2018,09,19,11,42,15.10
2018,09,19,11,43,15.20
2018,09,19,11,44,15.30
2018,09,19,11,45,15.30
2018,09,19,11,46,15.30
2018,09,19,11,47,15.30
2018,09,19,11,48,15.40
2018,09,19,11,49,15.40
2018,09,19,11,50,15.30
2018,09,19,11,51,15.20
2018,09,19,11,52,15.20
2018,09,19,11,53,15.30
2018,09,19,11,54,15.40
2018,09,19,11,55,15.40
2018,09,19,11,56,15.50
2018,09,19,11,57,15.50
2018,09,19,11,58,15.50
2018,09,19,11,59,15.40
2018,09,19,12,00,15.50
2018,09,19,12,01,15.50
2018,09,19,12,02,15.60
2018,09,19,12,03,15.50
2018,09,19,12,04,15.30
2018,09,19,12,05,15.30
2018,09,19,12,06,15.30
2018,09,19,12,07,15.30
2018,09,19,12,08,15.30
2018,09,19,12,09,15.30
2018,09,19,12,10,15.30
2018,09,19,12,11,15.30
2018,09,19,12,12,15.40
2018,09,19,12,13,15.50
2018,09,19,12,14,15.60
2018,09,19,12,15,15.60
2018,09,19,12,16,15.50
2018,09,19,12,17,15.40
2018,09,19,12,18,15.40
2018,09,19,12,19,15.30
2018,09,19,12,20,15.30
2018,09,19,12,21,15.50
2018,09,19,12,22,15.60
2018,09,19,12,23,15.50
2018,09,19,12,24,15.50
2018,09,19,12,25,15.50
2018,09,19,12,26,15.50
2018,09,19,12,27,15.40
2018,09,19,12,28,15.50
2018,09,19,12,29,15.50
2018,09,19,12,30,15.30
2018,09,19,12,31,15.30
2018,09,19,12,32,15.30
2018,09,19,12,33,15.30
2018,09,19,12,34,15.30
2018,09,19,12,35,15.30
2018,09,19,12,36,15.30
2018,09,19,12,37,15.30
2018,09,19,12,38,15.60
2018,09,19,12,39,15.70
2018,09,19,12,40,15.70
2018,09,19,12,41,15.50
2018,09,19,12,42,15.50
2018,09,19,12,43,15.50
2018,09,19,12,44,15.50
2018,09,19,12,45,15.50
2018,09,19,12,46,15.50
2018,09,19,12,47,15.60
2018,09,19,12,48,15.60
2018,09,19,12,49,15.60
2018,09,19,12,50,15.50
2018,09,19,12,51,15.40
2018,09,19,12,52,15.50
2018,09,19,12,53,15.60
2018,09,19,12,54,15.60
2018,09,19,12,55,15.50
2018,09,19,12,56,15.40
2018,09,19,12,57,15.30
2018,09,19,12,58,15.30
2018,09,19,12,59,15.30
2018,09,19,13,00,15.20
2018,09,19,13,01,15.10
2018,09,19,13,02,15.10
2018,09,19,13,03,15.00
2018,09,19,13,04,15.00
2018,09,19,13,05,15.00
2018,09,19,13,06,15.00
2018,09,19,13,07,15.20
2018,09,19,13,08,15.20
2018,09,19,13,09,15.20
2018,09,19,13,10,15.20
2018,09,19,13,11,15.20
2018,09,19,13,12,15.10
2018,09,19,13,13,15.10
2018,09,19,13,14,15.00
2018,09,19,13,15,15.10
2018,09,19,13,16,15.10
2018,09,19,13,17,15.10
2018,09,19,13,18,15.30
2018,09,19,13,19,15.30
2018,09,19,13,20,15.20
2018,09,19,13,21,15.20
2018,09,19,13,22,15.30
2018,09,19,13,23,15.30
2018,09,19,13,24,15.30
2018,09,19,13,25,15.30
2018,09,19,13,26,15.30
2018,09,19,13,27,15.20
2018,09,19,13,28,15.20
2018,09,19,13,29,15.30
2018,09,19,13,30,15.30
2018,09,19,13,31,15.30
2018,09,19,13,32,15.40
2018,09,19,13,33,15.50
2018,09,19,13,34,15.50
2018,09,19,13,35,15.50
2018,09,19,13,36,15.60
2018,09,19,13,37,15.50
2018,09,19,13,38,15.40
2018,09,19,13,39,15.30
2018,09,19,13,40,15.30
2018,09,19,13,41,15.20
2018,09,19,13,42,15.20
2018,09,19,13,43,15.30
2018,09,19,13,44,15.20
2018,09,19,13,45,15.20
2018,09,19,13,46,15.20
2018,09,19,13,47,15.20
2018,09,19,13,48,15.10
2018,09,19,13,49,15.10
2018,09,19,13,50,15.00
2018,09,19,13,51,15.20
2018,09,19,13,52,15.30
2018,09,19,13,53,15.10
2018,09,19,13,54,15.10
2018,09,19,13,55,15.10
2018,09,19,13,56,15.10
2018,09,19,13,57,15.30
2018,09,19,13,58,15.30
2018,09,19,13,59,15.30
2018,09,19,14,00,15.30
2018,09,19,14,01,15.30
2018,09,19,14,02,15.20
2018,09,19,14,03,15.10
2018,09,19,14,04,15.20
2018,09,19,14,05,15.30
2018,09,19,14,06,15.40
2018,09,19,14,07,15.50
2018,09,19,14,08,15.70
2018,09,19,14,09,15.70
2018,09,19,14,10,15.60
2018,09,19,14,11,15.70
2018,09,19,14,12,15.80
2018,09,19,14,13,15.70
2018,09,19,14,14,15.60
2018,09,19,14,15,15.60
2018,09,19,14,16,15.70
2018,09,19,14,17,15.60
2018,09,19,14,18,15.50
2018,09,19,14,19,15.30
2018,09,19,14,20,15.30
2018,09,19,14,21,15.30
2018,09,19,14,22,15.30
2018,09,19,14,23,15.40
2018,09,19,14,24,15.50
2018,09,19,14,25,15.60
2018,09,19,14,26,15.70
2018,09,19,14,27,15.60
2018,09,19,14,28,15.50
2018,09,19,14,29,15.40
2018,09,19,14,30,15.30
2018,09,19,14,31,15.40
2018,09,19,14,32,15.40
2018,09,19,14,33,15.40
2018,09,19,14,34,15.50
2018,09,19,14,35,15.60
2018,09,19,14,36,15.80
2018,09,19,14,37,15.80
2018,09,19,14,38,15.90
2018,09,19,14,39,16.00
2018,09,19,14,40,15.90
2018,09,19,14,41,15.90
2018,09,19,14,42,16.00
2018,09,19,14,43,16.10
2018,09,19,14,44,16.10
2018,09,19,14,45,16.20
2018,09,19,14,46,16.20
2018,09,19,14,47,16.20
2018,09,19,14,48,16.30
2018,09,19,14,49,16.30
2018,09,19,14,50,16.30
2018,09,19,14,51,16.30
2018,09,19,14,52,16.30
2018,09,19,14,53,16.40
2018,09,19,14,54,16.40
2018,09,19,14,55,16.60
2018,09,19,14,56,16.70
2018,09,19,14,57,16.80
2018,09,19,14,58,16.90
2018,09,19,14,59,16.90
2018,09,19,15,00,17.00
2018,09,19,15,01,17.10
2018,09,19,15,02,17.30
2018,09,19,15,03,17.30
2018,09,19,15,04,17.40
2018,09,19,15,05,17.50
2018,09,19,15,06,17.50
2018,09,19,15,07,17.50
2018,09,19,15,08,17.40
2018,09,19,15,09,17.40
2018,09,19,15,10,17.40
2018,09,19,15,11,17.30
2018,09,19,15,12,17.30
2018,09,19,15,13,17.30
2018,09,19,15,14,17.30
2018,09,19,15,15,17.30
2018,09,19,15,16,17.30
2018,09,19,15,17,17.30
2018,09,19,15,18,17.30
2018,09,19,15,19,17.20
2018,09,19,15,20,17.20
2018,09,19,15,21,17.20
2018,09,19,15,22,17.20
2018,09,19,15,23,17.20
2018,09,19,15,24,17.20
2018,09,19,15,25,17.20
2018,09,19,15,26,17.20
2018,09,19,15,27,17.20
2018,09,19,15,28,17.10
2018,09,19,15,29,17.00
2018,09,19,15,30,17.00
2018,09,19,15,31,16.90
2018,09,19,15,32,16.90
2018,09,19,15,33,16.80
2018,09,19,15,34,16.70
2018,09,19,15,35,16.70
2018,09,19,15,36,16.60
2018,09,19,15,37,16.60
2018,09,19,15,38,16.50
2018,09,19,15,39,16.60
2018,09,19,15,40,16.50
2018,09,19,15,41,16.40
2018,09,19,15,42,16.40
2018,09,19,15,43,16.40
2018,09,19,15,44,16.30
2018,09,19,15,45,16.30
2018,09,19,15,46,16.30
2018,09,19,15,47,16.30
2018,09,19,15,48,16.30
2018,09,19,15,49,16.30
2018,09,19,15,50,16.30
2018,09,19,15,51,16.40
2018,09,19,15,52,16.40
2018,09,19,15,53,16.40
2018,09,19,15,54,16.40
2018,09,19,15,55,16.40
2018,09,19,15,56,16.40
2018,09,19,15,57,16.40
2018,09,19,15,58,16.40
2018,09,19,15,59,16.40
2018,09,19,16,00,16.50
2018,09,19,16,01,16.60
2018,09,19,16,02,16.60
2018,09,19,16,03,16.60
2018,09,19,16,04,16.60
2018,09,19,16,05,16.70
2018,09,19,16,06,16.70
2018,09,19,16,07,16.70
2018,09,19,16,08,16.70
2018,09,19,16,09,16.80
2018,09,19,16,10,16.90
2018,09,19,16,11,16.90
2018,09,19,16,12,16.90
2018,09,19,16,13,16.90
2018,09,19,16,14,16.90
2018,09,19,16,15,16.90
2018,09,19,16,16,16.90
2018,09,19,16,17,16.90
2018,09,19,16,18,16.80
2018,09,19,16,19,16.80
2018,09,19,16,20,16.80
2018,09,19,16,21,16.80
2018,09,19,16,22,16.80
2018,09,19,16,23,16.80
2018,09,19,16,24,16.70
2018,09,19,16,25,16.70
2018,09,19,16,26,16.70
2018,09,19,16,27,16.70
2018,09,19,16,28,16.70
2018,09,19,16,29,16.70
2018,09,19,16,30,16.70
2018,09,19,16,31,16.70
2018,09,19,16,32,16.70
2018,09,19,16,33,16.70
2018,09,19,16,34,16.70
2018,09,19,16,35,16.70
2018,09,19,16,36,16.70
2018,09,19,16,37,16.70
2018,09,19,16,38,16.70
2018,09,19,16,39,16.70
2018,09,19,16,40,16.70
2018,09,19,16,41,16.70
2018,09,19,16,42,16.70
2018,09,19,16,43,16.70
2018,09,19,16,44,16.70
2018,09,19,16,45,16.70
2018,09,19,16,46,16.70
2018,09,19,16,47,16.70
2018,09,19,16,48,16.70
2018,09,19,16,49,16.70
2018,09,19,16,50,16.70
2018,09,19,16,51,16.70
2018,09,19,16,52,16.70
2018,09,19,16,53,16.60
2018,09,19,16,54,16.60
2018,09,19,16,55,16.60
2018,09,19,16,56,16.60
2018,09,19,16,57,16.60
2018,09,19,16,58,16.50
2018,09,19,16,59,16.40
2018,09,19,17,00,16.40
2018,09,19,17,01,16.40
2018,09,19,17,02,16.40
2018,09,19,17,03,16.40
2018,09,19,17,04,16.40
2018,09,19,17,05,16.40
2018,09,19,17,06,16.40
2018,09,19,17,07,16.40
2018,09,19,17,08,16.40
2018,09,19,17,09,16.40
2018,09,19,17,10,16.40
2018,09,19,17,11,16.40
2018,09,19,17,12,16.40
2018,09,19,17,13,16.50
2018,09,19,17,14,16.60
2018,09,19,17,15,16.60
2018,09,19,17,16,16.40
2018,09,19,17,17,16.40
2018,09,19,17,18,16.40
2018,09,19,17,19,16.40
2018,09,19,17,20,16.40
2018,09,19,17,21,16.40
2018,09,19,17,22,16.40
2018,09,19,17,23,16.40
2018,09,19,17,24,16.40
2018,09,19,17,25,16.40
2018,09,19,17,26,16.40
2018,09,19,17,27,16.40
2018,09,19,17,28,16.40
2018,09,19,17,29,16.40
2018,09,19,17,30,16.40
2018,09,19,17,31,16.40
2018,09,19,17,32,16.40
2018,09,19,17,33,16.40
2018,09,19,17,34,16.40
2018,09,19,17,35,16.40
2018,09,19,17,36,16.40
2018,09,19,17,37,16.40
2018,09,19,17,38,16.40
2018,09,19,17,39,16.40
2018,09,19,17,40,16.40
2018,09,19,17,41,16.40